Regional Weather Roundup
Issued by NWS

Home | Current Version | Previous Version | Text Only | Print | Product List | Glossary Off
Versions: 1 2 3 4 5 6 7 8 9 10 11 12 13 14 15 16 17 18 19 20 21 22 23 24 25 26 27 28 29 30 31 32 33 34 35 36 37 38 39 40 41 42 43 44 45 46 47 48 49 50

000
ASUS44 KMEG 181610
RWRTN
TENNESSEE HOURLY STATE WEATHER ROUNDUP
NATIONAL WEATHER SERVICE MEMPHIS TN
1000 AM CST WED JAN 18 2017

TNZ002-004-019-021-049-052-054-088>092-181700-
WEST TENNESSEE

CITY           SKY/WX    TMP DP  RH WIND       PRES   REMARKS
MEMPHIS INTL   CLOUDY    48  41  76 CALM      30.24R
NWS MEMPHIS      N/A     47 N/A N/A MISG        N/A
JACKSON        CLOUDY    47  43  86 NE5       30.24F
DYERSBURG      CLOUDY    45  39  81 E3        30.25F
UNION CITY     CLOUDY    45  45 100 CALM      30.25R
PARIS          CLOUDY    41  37  87 CALM      30.25R
HUNTINGDON     CLOUDY    45  41  87 CALM      30.25R
$$

TNZ008-025-027-028-033-062-065-066-181700-
NORTH MIDDLE TENNESSEE

CITY           SKY/WX    TMP DP  RH WIND       PRES   REMARKS
NASHVILLE      CLOUDY    47  39  74 NE6       30.26R
PORTLAND       CLOUDY    45  39  81 N5        30.25R
CLARKSVILLE    CLOUDY    45  38  76 VRB3      30.26R
SMYRNA         CLOUDY    46  41  82 N5        30.27R
GALLATIN       CLOUDY    46  41  81 VRB5      30.29R
CROSSVILLE     CLOUDY    45  40  82 NE6       30.22R
$$

TNZ061-075-076-078-094-096-097-181700-
SOUTH MIDDLE TENNESSEE

CITY           SKY/WX    TMP DP  RH WIND       PRES   REMARKS
FAYETTEVILLE   PTSUNNY   48  45  87 CALM      30.23R
TULLAHOMA      CLOUDY    46  43  87 NE3       30.23R
WINCHESTER     CLOUDY    50  45  81 VRB3      30.22S
MCMINNVILLE    CLOUDY    46  45  93 N6        30.23S
COLUMBIA       CLOUDY    48  48 100 NE3       30.22S
SHELBYVILLE    CLOUDY    48  45  87 N5        30.24S
$$

TNZ017-018-042-046-047-181700-
NORTHEAST TENNESSEE

CITY           SKY/WX    TMP DP  RH WIND       PRES   REMARKS
TRI CITIES     MOSUNNY   53  41  63 W14       30.18R
ELIZABETHTON   MOSUNNY   54  43  66 NW10G17   30.17R
$$

TNZ012-013-036-069-073-074-181700-
CENTRAL EAST TENNESSEE

CITY           SKY/WX    TMP DP  RH WIND       PRES   REMARKS
KNOXVILLE      PTSUNNY   55  44  66 N5        30.20R
OAK RIDGE      MOSUNNY   56  43  61 VRB3      30.21R
GATLINBURG     MOSUNNY   52  45  76 NW6       30.19S
MORRISTOWN     SUNNY     54  43  66 MISG      30.19R
JACKSBORO      CLOUDY    52  39  62 VRB5      30.25R
$$

TNZ083-085-099-181700-
SOUTHEAST TENNESSEE

CITY           SKY/WX    TMP DP  RH WIND       PRES   REMARKS
CHATTANOOGA    PTSUNNY   58  46  64 N5        30.20S
$$

SKY/WX REPORTED AS FAIR MEANS FEW OR NO CLOUDS BELOW
12 THOUSAND FEET.





USA.gov is the U.S. government's official web portal to all federal, state and local government web resources and services.